TimeCDT,TemperatureF,Dew PointF,Humidity,Sea Level PressureIn,VisibilityMPH,Wind Direction,Wind SpeedMPH,Gust SpeedMPH,PrecipitationIn,Events,Conditions,WindDirDegrees,DateUTC
12:13 AM,32.0,28.4,87,29.97,10.0,NNW,8.1,-,N/A,,Clear,330,2013-10-21 05:13:00
12:33 AM,30.2,26.6,86,29.97,10.0,NW,5.8,-,N/A,,Scattered Clouds,320,2013-10-21 05:33:00
12:53 AM,30.2,26.6,86,29.98,10.0,NNW,4.6,-,N/A,,Mostly Cloudy,330,2013-10-21 05:53:00
1:13 AM,30.2,24.8,80,29.98,10.0,WNW,4.6,-,N/A,,Mostly Cloudy,300,2013-10-21 06:13:00
1:33 AM,28.4,24.8,86,29.98,10.0,West,3.5,-,N/A,,Mostly Cloudy,270,2013-10-21 06:33:00
1:53 AM,28.4,26.6,93,29.98,10.0,WNW,3.5,-,N/A,,Overcast,290,2013-10-21 06:53:00
2:14 AM,30.2,26.6,86,29.98,10.0,West,3.5,-,N/A,,Overcast,280,2013-10-21 07:14:00
2:33 AM,30.2,28.4,93,29.98,10.0,WNW,4.6,-,N/A,,Overcast,300,2013-10-21 07:33:00
2:53 AM,30.2,28.4,93,29.98,10.0,West,4.6,-,N/A,,Overcast,280,2013-10-21 07:53:00
3:13 AM,30.2,28.4,93,29.99,10.0,WNW,5.8,-,N/A,,Overcast,290,2013-10-21 08:13:00
3:34 AM,30.2,28.4,93,29.99,10.0,WNW,3.5,-,N/A,,Overcast,290,2013-10-21 08:34:00
3:53 AM,30.2,28.4,93,29.98,10.0,West,5.8,-,N/A,,Overcast,270,2013-10-21 08:53:00
4:13 AM,32.0,28.4,87,29.98,10.0,West,4.6,-,N/A,,Overcast,280,2013-10-21 09:13:00
4:33 AM,32.0,28.4,87,29.98,10.0,WNW,6.9,-,N/A,,Overcast,290,2013-10-21 09:33:00
4:53 AM,32.0,26.6,80,29.98,10.0,WNW,5.8,-,N/A,,Overcast,300,2013-10-21 09:53:00
5:13 AM,32.0,26.6,80,29.98,10.0,WNW,6.9,-,N/A,,Overcast,290,2013-10-21 10:13:00
5:33 AM,32.0,26.6,80,29.99,10.0,WNW,8.1,-,N/A,,Overcast,290,2013-10-21 10:33:00
5:53 AM,32.0,28.4,87,29.98,10.0,West,6.9,-,N/A,,Overcast,280,2013-10-21 10:53:00
6:13 AM,32.0,28.4,87,29.98,10.0,West,5.8,-,N/A,,Overcast,280,2013-10-21 11:13:00
6:33 AM,32.0,28.4,87,29.98,10.0,West,4.6,-,N/A,,Overcast,270,2013-10-21 11:33:00
6:53 AM,32.0,28.4,87,29.99,10.0,WNW,5.8,-,N/A,,Overcast,290,2013-10-21 11:53:00
7:13 AM,32.0,28.4,87,29.98,10.0,West,4.6,-,N/A,,Overcast,280,2013-10-21 12:13:00
7:33 AM,33.8,28.4,81,29.98,10.0,WNW,6.9,-,N/A,,Overcast,290,2013-10-21 12:33:00
7:53 AM,33.8,28.4,81,29.99,10.0,WNW,6.9,-,N/A,,Overcast,290,2013-10-21 12:53:00
8:13 AM,32.0,28.4,87,29.99,10.0,West,5.8,-,N/A,,Overcast,280,2013-10-21 13:13:00
8:33 AM,33.8,30.2,87,29.99,10.0,WNW,6.9,-,N/A,,Overcast,290,2013-10-21 13:33:00
8:53 AM,33.8,30.2,87,29.99,10.0,West,5.8,-,N/A,,Scattered Clouds,280,2013-10-21 13:53:00
9:13 AM,33.8,30.2,87,29.99,10.0,WNW,5.8,-,N/A,,Scattered Clouds,290,2013-10-21 14:13:00
9:33 AM,33.8,30.2,87,29.99,10.0,WNW,8.1,-,N/A,,Mostly Cloudy,300,2013-10-21 14:33:00
9:53 AM,35.6,28.4,75,29.99,10.0,NW,11.5,-,N/A,,Mostly Cloudy,320,2013-10-21 14:53:00
10:13 AM,37.4,28.4,70,29.99,10.0,WNW,15.0,-,N/A,,Mostly Cloudy,300,2013-10-21 15:13:00
10:33 AM,37.4,28.4,70,29.99,10.0,NW,13.8,-,N/A,,Mostly Cloudy,320,2013-10-21 15:33:00
10:53 AM,37.4,28.4,70,29.99,10.0,NW,13.8,-,N/A,,Mostly Cloudy,310,2013-10-21 15:53:00
11:13 AM,37.4,26.6,65,29.99,10.0,NW,12.7,21.9,N/A,,Mostly Cloudy,310,2013-10-21 16:13:00
11:33 AM,39.2,26.6,61,29.98,10.0,NW,11.5,-,N/A,,Mostly Cloudy,320,2013-10-21 16:33:00
11:54 AM,39.2,26.6,61,29.98,10.0,NNW,9.2,19.6,N/A,,Mostly Cloudy,330,2013-10-21 16:54:00
12:13 PM,39.2,26.6,61,29.98,10.0,NW,11.5,17.3,N/A,,Mostly Cloudy,310,2013-10-21 17:13:00
12:33 PM,41.0,26.6,57,29.97,10.0,WNW,11.5,19.6,N/A,,Mostly Cloudy,290,2013-10-21 17:33:00
12:53 PM,41.0,24.8,53,29.97,10.0,WNW,13.8,21.9,N/A,,Mostly Cloudy,300,2013-10-21 17:53:00
1:13 PM,41.0,26.6,57,29.96,10.0,NW,9.2,-,N/A,,Overcast,310,2013-10-21 18:13:00
1:33 PM,42.8,26.6,53,29.96,10.0,NW,9.2,-,N/A,,Overcast,310,2013-10-21 18:33:00
1:53 PM,42.8,26.6,53,29.95,10.0,NW,11.5,16.1,N/A,,Overcast,310,2013-10-21 18:53:00
2:13 PM,42.8,26.6,53,29.95,10.0,NW,12.7,18.4,N/A,,Overcast,320,2013-10-21 19:13:00
2:33 PM,44.6,26.6,49,29.94,10.0,WNW,9.2,-,N/A,,Overcast,300,2013-10-21 19:33:00
2:54 PM,44.6,26.6,49,29.93,10.0,WNW,12.7,16.1,N/A,,Overcast,300,2013-10-21 19:54:00
3:13 PM,44.6,26.6,49,29.93,10.0,NW,15.0,21.9,N/A,,Overcast,310,2013-10-21 20:13:00
3:33 PM,42.8,26.6,53,29.93,10.0,NW,11.5,19.6,N/A,,Mostly Cloudy,310,2013-10-21 20:33:00
3:53 PM,42.8,26.6,53,29.93,10.0,NW,10.4,-,N/A,,Mostly Cloudy,310,2013-10-21 20:53:00
4:13 PM,42.8,26.6,53,29.93,10.0,NW,9.2,-,N/A,,Scattered Clouds,320,2013-10-21 21:13:00
4:34 PM,44.6,26.6,49,29.92,10.0,WNW,10.4,18.4,N/A,,Clear,300,2013-10-21 21:34:00
4:53 PM,44.6,26.6,49,29.92,10.0,NW,9.2,17.3,N/A,,Scattered Clouds,320,2013-10-21 21:53:00
5:13 PM,44.6,26.6,49,29.93,10.0,NNW,8.1,-,N/A,,Scattered Clouds,330,2013-10-21 22:13:00
5:33 PM,44.6,26.6,49,29.93,10.0,NNW,6.9,-,N/A,,Mostly Cloudy,330,2013-10-21 22:33:00
5:53 PM,42.8,28.4,57,29.93,10.0,NW,5.8,-,N/A,,Scattered Clouds,320,2013-10-21 22:53:00
6:13 PM,42.8,28.4,57,29.92,10.0,NW,3.5,-,N/A,,Mostly Cloudy,320,2013-10-21 23:13:00
6:33 PM,42.8,28.4,57,29.92,10.0,North,4.6,-,N/A,,Scattered Clouds,350,2013-10-21 23:33:00
6:53 PM,39.2,28.4,65,29.92,10.0,Calm,Calm,-,N/A,,Scattered Clouds,0,2013-10-21 23:53:00
7:13 PM,39.2,28.4,65,29.92,10.0,Calm,Calm,-,N/A,,Scattered Clouds,0,2013-10-22 00:13:00
7:33 PM,37.4,28.4,70,29.92,10.0,Calm,Calm,-,N/A,,Clear,0,2013-10-22 00:33:00
7:53 PM,37.4,28.4,70,29.93,10.0,NNE,3.5,-,N/A,,Scattered Clouds,30,2013-10-22 00:53:00
8:13 PM,35.6,28.4,75,29.92,10.0,NE,3.5,-,N/A,,Scattered Clouds,50,2013-10-22 01:13:00
8:33 PM,35.6,26.6,70,29.92,10.0,Calm,Calm,-,N/A,,Scattered Clouds,0,2013-10-22 01:33:00
8:53 PM,33.8,26.6,75,29.92,10.0,Calm,Calm,-,N/A,,Clear,0,2013-10-22 01:53:00
9:13 PM,33.8,26.6,75,29.92,10.0,ENE,3.5,-,N/A,,Clear,60,2013-10-22 02:13:00
9:33 PM,33.8,26.6,75,29.92,10.0,Calm,Calm,-,N/A,,Clear,0,2013-10-22 02:33:00
9:53 PM,33.8,26.6,75,29.92,10.0,East,3.5,-,N/A,,Scattered Clouds,100,2013-10-22 02:53:00
10:13 PM,33.8,26.6,75,29.92,10.0,East,3.5,-,N/A,,Mostly Cloudy,100,2013-10-22 03:13:00
10:33 PM,35.6,26.6,70,29.93,10.0,East,4.6,-,N/A,,Mostly Cloudy,100,2013-10-22 03:33:00
10:53 PM,33.8,26.6,75,29.93,10.0,East,3.5,-,N/A,,Overcast,100,2013-10-22 03:53:00
11:13 PM,33.8,26.6,75,29.93,10.0,East,4.6,-,N/A,,Overcast,90,2013-10-22 04:13:00
11:33 PM,35.6,26.6,70,29.93,10.0,East,3.5,-,N/A,,Overcast,100,2013-10-22 04:33:00
11:53 PM,35.6,26.6,70,29.93,10.0,Calm,Calm,-,N/A,,Overcast,0,2013-10-22 04:53:00